User: anonymous   Login
Location: Unspecified
(0.0000°N, 0.0000°E)
Time: 18:48:38
(UTC+00:00)
Language:

CUBEBUG 2 - Orbit

View from above orbital plane
View from above orbital plane
View from above satellite
View from above satellite

Ground track
Ground track

The orbit data is extracted from the following two-line orbital elements,

1 39440U 13066AA  19340.53245635  .00000161  00000-0  29574-4 0  9995
2 39440  97.6136 328.9849 0078811 249.6927 109.5801 14.75926707325171
Epoch (UTC): 06 December 2019 12:46:44
Eccentricity: 0.0078811
inclination: 97.6136°
perigee height: 587 km
apogee height: 697 km
right ascension of ascending node: 328.9849°
argument of perigee: 249.6927°
revolutions per day: 14.75926707
mean anomaly at epoch: 109.5801°
orbit number at epoch: 32517

The dashed part of the orbit path shows where the satellite is in the earth's shadow,  

DLR